Location: Cedar Falls
(42.5280°N, 92.4450°W)
Time: 08:30:41
(UTC-06:00)

NOSS 3-1 (C) - Visible Passes

Search period start: 05 December 2016 00:00
Search period end: 15 December 2016 00:00
Orbit: 843 x 1366 km, 63.4° (Epoch: 27 November)

Date Brightness Start Highest point End Pass type
(mag) Time Alt. Az. Time Alt. Az. Time Alt. Az.
05 Dec 6.2 06:20:40 10° SSE 06:24:54 21° ESE 06:29:24 10° ENE visible
05 Dec 6.2 17:31:28 10° NW 17:37:59 30° WSW 17:44:54 10° SSW visible
06 Dec 6.8 05:38:28 10° ESE 05:40:11 11° ESE 05:41:55 10° E visible
07 Dec 4.6 06:39:04 10° S 06:44:35 48° ESE 06:50:41 10° NE visible
07 Dec 7.1 17:53:54 10° WNW 17:57:40 14° WSW 18:01:32 10° SW visible
08 Dec 5.5 05:54:48 10° SSE 05:59:39 28° ESE 06:04:54 10° NE visible
08 Dec 6.7 17:06:56 10° WNW 17:12:48 24° WSW 17:18:59 10° SSW visible
09 Dec 6.3 05:11:24 10° SE 05:14:51 16° ESE 05:18:28 10° ENE visible
10 Dec 3.9 06:13:45 10° SSW 06:19:27 63° ESE 06:25:50 10° NE visible
11 Dec 4.8 05:29:09 10° S 05:34:26 38° ESE 05:40:13 10° NE visible
12 Dec 5.7 04:45:13 10° SSE 04:49:35 22° ESE 04:54:12 10° ENE visible
12 Dec 3.4 06:33:53 10° SW 06:39:42 64° NW 06:46:15 10° NNE visible
13 Dec 6.2 04:02:42 10° SE 04:04:51 12° ESE 04:07:02 10° E visible
13 Dec 3.5 05:48:35 10° SSW 05:54:24 82° ESE 06:00:55 10° NE visible
14 Dec 4.2 05:03:43 10° SSW 05:09:16 50° ESE 05:15:26 10° NE visible
14 Dec 4.1 06:54:56 10° WSW 07:00:21 35° NW 07:06:25 10° NNE visible
